Regional Weather Roundup
Issued by NWS

Home | Current Version | Previous Version | Graphics & Text | Print | Product List | Glossary On
Versions: 1 2 3 4 5 6 7 8 9 10 11 12 13 14 15 16 17 18 19 20 21 22 23 24 25 26 27 28 29 30 31 32 33 34 35 36 37 38 39 40 41 42 43 44 45 46 47 48 49 50
000
ASUS43 KBIS 232010
RWRND

NORTH DAKOTA REGIONAL WEATHER ROUNDUP
NATIONAL WEATHER SERVICE BISMARCK ND
300 PM CDT TUE SEP 23 2014

NOTE: "FAIR" INDICATES FEW OR NO CLOUDS BELOW 12,000 FEET WITH NO
SIGNIFICANT WEATHER AND/OR OBSTRUCTIONS TO VISIBILITY.


NDZ001>003-009>011-017-232100-
NORTHWEST NORTH DAKOTA

CITY           SKY/WX    TMP DP  RH WIND       PRES   REMARKS
WILLISTON      SUNNY     81  55  40 VRB5      29.83F
MINOT          SUNNY     80  56  43 S16       29.85F
MINOT AFB      SUNNY     79  59  50 S15       29.84F
$$

NDZ018>021-031>035-040>046-232100-
SOUTHWEST NORTH DAKOTA

CITY           SKY/WX    TMP DP  RH WIND       PRES   REMARKS
BISMARCK       CLOUDY    67  57  70 SE16      29.93S
DICKINSON      SUNNY     79  57  46 S8        29.86F
GARRISON         N/A     76  59  55 S13G20    29.88R
HETTINGER ARPT SUNNY     76  57  51 SE9       29.90S
$$

NDZ004>008-012>016-024-026-027-054-232100-
NORTHEAST NORTH DAKOTA

CITY           SKY/WX    TMP DP  RH WIND       PRES   REMARKS
GRAND FORKS    MOSUNNY   73  57  57 S16G23    29.99F
GRND FRKS AFB  MOSUNNY   76  59  55 S16       29.99S
DEVILS LAKE    SUNNY     75  57  53 S23G33    29.93F
$$

NDZ022-023-025-028>030-036>039-047>053-232100-
SOUTHEAST NORTH DAKOTA

CITY           SKY/WX    TMP DP  RH WIND       PRES   REMARKS
FARGO          SUNNY     76  50  40 S25G37    30.03S
JAMESTOWN      CLOUDY    66  57  72 S16       29.97F
$$




USA.gov is the U.S. government's official web portal to all federal, state and local government web resources and services.